Preview of NWS' New Version of Forecast
This preview is not operational and should not be used for support decisions.

Regional Weather Roundup (RWR)

Issued by Philadelphia/Mt Holly (PHI)

                            
000
ASUS41 KPHI 182312
RWRPHI

REGIONAL WEATHER ROUNDUP
NATIONAL WEATHER SERVICE MOUNT HOLLY NJ
600 PM EST FRI JAN 18 2019

NOTE:  "FAIR" INDICATES FEW OR NO CLOUDS BELOW 12,000 FEET WITH NO
SIGNIFICANT WEATHER AND/OR OBSTRUCTIONS TO VISIBILITY.

 * = STATION DOES NOT REPORT PRECIPITATION (E.G. RAIN, SNOW, ETC.) 
        OR FOG.

NJZ015>026-190000-
SOUTHERN NEW JERSEY
  
CITY           SKY/WX    TMP DP  RH WIND       PRES   REMARKS
POMONA         CLOUDY    34  34 100 NW8       30.12R WCI  27          
WILDWOOD*      CLOUDY    38  34  85 NW7       30.13R WCI  33          
MILLVILLE      MOCLDY    37  32  82 NW7       30.12R WCI  32          
WRIGHTSTOWN    CLOUDY    35  33  93 NW7       30.09R WCI  29          
MOUNT HOLLY    MOCLDY    35  31  85 CALM      30.13R FOG              
TRENTON        FAIR      34  31  88 W3        30.10R                  

$$
NJZ001>014-190000-
NORTHERN NEW JERSEY
  
CITY           SKY/WX    TMP DP  RH WIND       PRES   REMARKS
SUSSEX         CLOUDY    31  29  92 SW3       30.07R                  
ANDOVER*         N/A     31  28  89 VRB3      30.07R                  
MORRISTOWN     PTCLDY    34  32  93 W7        30.10R WCI  28          
NEWARK         CLOUDY    36  31  82 W7        30.10R WCI  30          
TETERBORO      CLOUDY    40  32  73 S9        30.08R WCI  34          
CALDWELL       FAIR      34  32  92 CALM      30.10R                  
SOMERVILLE     FAIR      33  30  88 CALM      30.09R                  
ALLAIRE*       CLOUDY    35  33  92 W7        30.10R WCI  29          
TOMS RIVER*    CLOUDY    35  34  96 W8        30.11R WCI  29          

$$
PAZ043-044-047-054-055-060>062-066>071-190000-
EASTERN PENNSYLVANIA
  
CITY           SKY/WX    TMP DP  RH WIND       PRES   REMARKS
PHILADELPHIA   MOCLDY    37  31  78 W7        30.13R WCI  32          
NORTH PHILA    FAIR      35  30  82 CALM      30.13R HAZE             
BLUE BELL*     FAIR      32  32 100 CALM      30.12S                  
DOYLESTOWN     FAIR      32  28  85 CALM      30.09R                  
QUAKERTOWN*    CLEAR     30  28  93 CALM      30.09  FOG              
PERKASIE*      FAIR      32  32 100 CALM      30.10R FOG              
POTTSTOWN      FAIR      31  29  92 CALM      30.12R FOG              
LANCASTER      FAIR      33  30  88 CALM      30.09F FOG              
COATESVILLE    MOCLDY    30  30 100 CALM      30.10S FOG              
READING        MOCLDY    33  31  92 CALM      30.09S FOG              
ALLENTOWN      FAIR      32  26  78 SW5       30.09R WCI  27          
MOUNT POCONO   CLOUDY    29  27  92 W9        30.00R WCI  20          
HAZLETON       CLOUDY   N/A N/A N/A CALM      30.07R HAZE             
LEHIGHTON      CLOUDY    36  30  80 W6        30.09R WCI  31          
WILKES BARRE   CLOUDY    32  28  85 SW6       30.07R WCI  26          

$$
DEZALL-MDZ008-012-015-019-020-190000-
DELAWARE AND EASTERN MARYLAND
  
CITY           SKY/WX    TMP DP  RH WIND       PRES   REMARKS
WILMINGTON     FAIR      35  31  85 NW3       30.12R                  
DOVER          FAIR      35  31  85 CALM      30.12R                  
GEORGETOWN     FAIR      41  34  76 CALM      30.13R                  
EASTON         PTCLDY    36  34  93 CALM      30.17R                  
PATUXENT       FAIR      38  38 100 N7        30.12  WCI  33          
OCEAN CITY     FAIR      38  35  89 N3        30.12R                  
WALLOPS ISLAND FAIR      42  35  76 NW3       30.13R                  
SALISBURY      FAIR      39  36  89 N6        30.12R WCI  35          

$$
PAZ001-021-NYZ056-072-MDZ011-DCZ001-190000-
OTHER NEARBY LOCATIONS
  
CITY           SKY/WX    TMP DP  RH WIND       PRES   REMARKS
HARRISBURG     MOCLDY    34  30  85 CALM      30.10R FOG              
STATE COLLEGE  CLOUDY    34  28  80 NW6       30.10R WCI  29          
WILLIAMSPORT   LGT SNOW  33  29  85 W7        30.11R FOG     WCI  27  
BINGHAMTON     CLOUDY    28  22  78 NW8       30.05R WCI  20          
NEW YORK CITY  CLOUDY    37  31  78 MISG      30.11R                  
BALTIMORE      MOCLDY    38  34  85 E3        30.11R                  
WASHINGTON DC  MOCLDY    39  34  82 S3        30.13R                  

$$